Simultaneous Nadir Overpasses (SNOs) Predictions

Prediction of SNOs between GOES-15 and TERRA Satellite Orbit:

Table of predicted SNOs for the next 14.0 days since TLE Epoch: 12/23/2023
Index Date Time (GOES-15) GOES-15 Lat,Lon TERRA Lat,Lon Distance(km) Time Diff (sec)
1 12/23/2023 05:57:32 -0.09, 61.25 0.25, 59.55 192.41 80
2 12/25/2023 05:43:23 -0.09, 61.27 -0.58, 63.61 266.83 80
3 12/25/2023 18:03:35 0.08, 61.31 -0.49, 58.71 295.91 80
4 12/27/2023 17:44:06 0.08, 61.34 0.38, 62.77 162.42 80
5 12/28/2023 06:04:10 -0.07, 61.31 0.64, 57.89 388.97 80
6 12/30/2023 05:50:00 -0.07, 61.33 -0.19, 61.95 70.17 80
7 12/30/2023 18:10:12 0.06, 61.36 -0.87, 57.05 490.84 80
8 01/01/2024 17:53:22 0.05, 61.39 -0.00, 61.11 32.15 80
9 01/03/2024 17:33:51 0.06, 61.42 0.83, 65.18 426.37 80
10 01/04/2024 05:53:54 -0.05, 61.41 0.22, 60.31 126.16 80
